Regional Weather Roundup
Issued by NWS

Home | Current Version | Previous Version | Graphics & Text | Print | Product List | Glossary On
Versions: 1 2 3 4 5 6 7 8 9 10 11 12 13 14 15 16 17 18 19 20 21 22 23 24 25 26 27 28 29 30 31 32 33 34 35 36 37 38 39 40 41 42 43 44 45 46 47 48 49 50
000
ASUS45 KPSR 280600
RWRAZ

ARIZONA HOURLY REGIONAL WEATHER ROUNDUP
NATIONAL WEATHER SERVICE PHOENIX AZ
1100 PM MST MON JUL 27 2015

NOTE: FAIR INDICATES FEW OR NO CLOUDS BELOW 12,000 FEET WITH NO
SIGNIFICANT WEATHER AND/OR OBSTRUCTIONS TO VISIBILITY.

AZZ001>003-036-280700-
NORTHWEST ARIZONA

CITY           SKY/WX    TMP DP  RH WIND       PRES   REMARKS
KINGMAN        CLEAR     75   9   8 SE10      29.98R
6HR MIN TEMP:  71; 6HR MAX TEMP:  95;

$$

AZZ004>008-015-016-018-280700-
NORTH CENTRAL ARIZONA

CITY           SKY/WX    TMP DP  RH WIND       PRES   REMARKS
GRAND CANYON   CLEAR     48  20  32 E3        30.24R
6HR MIN TEMP:  48; 6HR MAX TEMP:  84;

WILLIAMS       CLEAR     61  34  36 S3        30.31R
PRESCOTT       CLEAR     71  44  37 S7        30.11S
6HR MIN TEMP:  70; 6HR MAX TEMP:  86;

FLAGSTAFF      NOT AVBL
PAYSON         CLEAR     73  48  40 CALM      30.14R
PAGE           CLEAR     84  23  10 W6        29.99R
6HR MIN TEMP:  84; 6HR MAX TEMP:  97;

$$

AZZ009>014-017-280700-
NORTHEAST ARIZONA

CITY           SKY/WX    TMP DP  RH WIND       PRES   REMARKS
WINSLOW        NOT AVBL
SAINT JOHNS    PTCLDY    74  43  32 SW10      30.13S
6HR MIN TEMP:  74; 6HR MAX TEMP:  89;

WINDOW ROCK    CLEAR     67  35  30 CALM      30.21S
6HR MIN TEMP:  66; 6HR MAX TEMP:  87;

SHOW LOW       MOCLDY    68  41  37 S7        30.22S
$$

AZZ023-280700-
GREATER PHOENIX AREA

CITY           SKY/WX    TMP DP  RH WIND       PRES   REMARKS
PHOENIX        PTCLDY    98  57  25 W14       29.78R
6HR MIN TEMP:  98; 6HR MAX TEMP: 106;

LUKE AFB       CLEAR     95  57  28 SW9       29.78R
DEER VALLEY    CLEAR     93  53  25 CALM      29.80S
6HR MIN TEMP:  93; 6HR MAX TEMP: 102;

SCOTTSDALE     CLEAR     95  54  25 CALM      29.82R
6HR MIN TEMP:  95; 6HR MAX TEMP: 102;

MESA-GATEWAY   CLEAR     75  54  46 N3        29.82S
$$

AZZ027-028-280700-
SOUTHWEST MARICOPA COUNTY AND PINAL COUNTY

CITY           SKY/WX    TMP DP  RH WIND       PRES   REMARKS
CASA GRANDE    PTCLDY    93  55  27 W7        29.81S
6HR MIN TEMP:  93; 6HR MAX TEMP: 104;

GILA BEND      FAIR      93  55  28 SW12      29.78R HAZE
6HR MIN TEMP:  93; 6HR MAX TEMP: 106;

$$

AZZ503-504-507>509-280700-
SOUTHEAST ARIZONA

CITY           SKY/WX    TMP DP  RH WIND       PRES   REMARKS
TUCSON         PTCLDY    87  60  40 S12       29.95R
6HR MIN TEMP:  87; 6HR MAX TEMP:  99;

DAVIS-MONTHAN  MOCLDY    85  61  44 S9        29.94R
6HR MIN TEMP:  85; 6HR MAX TEMP:  99;

NOGALES        CLOUDY    73  61  65 S3        30.06S
6HR MIN TEMP:  73; 6HR MAX TEMP:  88;

SIERRA VISTA   MOCLDY    73  59  60 NW3       30.11S
6HR MIN TEMP:  73; 6HR MAX TEMP:  88;

SAFFORD        PTCLDY    86  46  24 NW9       29.92R
6HR MIN TEMP:  86; 6HR MAX TEMP: 101;

$$

AZZ020-021-025-026-031-280700-
SOUTHWEST ARIZONA

CITY           SKY/WX    TMP DP  RH WIND       PRES   REMARKS
YUMA           NOT AVBL
$$

CAZ031-033-041-043-047-048-061-280700-
SOUTHERN CALIFORNIA

CITY           SKY/WX    TMP DP  RH WIND       PRES   REMARKS
DOWNTOWN L.A.  CLEAR     68  63  84 CALM      29.90S
6HR MIN TEMP:  68; 6HR MAX TEMP:  77;

L.A. AIRPORT   MOCLDY    68  64  87 W6        29.91S
6HR MIN TEMP:  67; 6HR MAX TEMP:  74;

SAN DIEGO      PTCLDY    68  60  75 W5        29.93S
6HR MIN TEMP:  68; 6HR MAX TEMP:  74;

BURBANK        CLEAR     71  59  65 S3        29.90S
6HR MIN TEMP:  71; 6HR MAX TEMP:  81;

ONTARIO        CLEAR     71  58  63 SW5       29.91S
6HR MIN TEMP:  71; 6HR MAX TEMP:  85;

RIVERSIDE      CLEAR     71  58  63 CALM      29.92R
6HR MIN TEMP:  71; 6HR MAX TEMP:  86;

PALM SPRINGS   CLEAR     89  53  29 NW13      29.77R
6HR MIN TEMP:  89; 6HR MAX TEMP: 104;

EL CENTRO NAS  CLEAR     87  44  22 W10       29.74S
6HR MIN TEMP:  87; 6HR MAX TEMP: 107;

IMPERIAL       CLEAR     83  50  31 W12       29.72R
6HR MIN TEMP:  83; 6HR MAX TEMP: 106;

BLYTHE         CLEAR     92  31  11 W9        29.74R
6HR MIN TEMP:  91; 6HR MAX TEMP: 107;

$$

NVZ020-UTZ003-280700-
SOUTHERN NEVADA-UTAH

CITY           SKY/WX    TMP DP  RH WIND       PRES   REMARKS
LAS VEGAS      NOT AVBL
SALT LAKE CITY CLEAR     62  39  42 N9        30.14R
6HR MIN TEMP:  62; 6HR MAX TEMP:  76;

$$

NMZ009-TXZ055-280700-
NEW MEXICO-WEST TEXAS

CITY           SKY/WX    TMP DP  RH WIND       PRES   REMARKS
ALBUQUERQUE    PTCLDY    78  50  37 SE5       30.08S
6HR MIN TEMP:  78; 6HR MAX TEMP:  92;

EL PASO        CLOUDY    88  52  29 W13G20    30.00R
6HR MIN TEMP:  82; 6HR MAX TEMP:  98; 6HR PCP: TRACE;

$$


........................KEY........................
SKY/WX - SKY CONDITION/WEATHER
TMP    - TEMPERATURE IN FAHRENHEIT
DP     - DEW POINT IN FAHRENHEIT
RH     - RELATIVE HUMIDITY IN PERCENT
WIND   - DIRECTION AND SPEED IN MILES PER HOUR (MPH)
VRB    - VARIABLE WIND DIRECTION
PRES   - MEAN SEA LEVEL PRESSURE IN INCHES OF MERCURY
         F - FALLING PRESSURE   R - RISING PRESSURE
         S - STEADY PRESSURE
VSB    - VISIBILITY IN MILES
HX     - HEAT INDEX IN FAHRENHEIT
WCI    - WIND CHILL INDEX IN FAHRENHEIT
TC     - TEMPERATURE IN CELSIUS WHICH IS ALSO KNOWN AS
         TEMPERATURE IN CENTIGRADE
AFB    - AIR FORCE BASE
         LUKE AFB IS LUKE AIR FORCE BASE
         DAVIS-MONTHAN IS DAVIS-MONTHAN AIR FORCE BASE
NAS    - NAVAL AIR STATION
         EL CENTRO NAS IS EL CENTRO NAVAL AIR STATION
N/A    - NOT AVAILABLE



USA.gov is the U.S. government's official web portal to all federal, state and local government web resources and services.